2023/03/16 00:00:00,53.7, 3.8
2023/03/16 00:10:00,53.7, 3.9
2023/03/16 00:20:00,53.7, 3.9
2023/03/16 00:30:00,53.7, 4.1
2023/03/16 00:40:00,53.6, 4.3
2023/03/16 00:50:00,53.7, 4.4
2023/03/16 01:00:00,53.9, 4.6
2023/03/16 01:10:00,54.1, 4.2
2023/03/16 01:20:00,54.2, 3.9
2023/03/16 01:30:00,54.2, 4.0
2023/03/16 01:40:00,54.0, 4.1
2023/03/16 01:50:00,54.0, 3.7
2023/03/16 02:00:00,54.3, 3.7
2023/03/16 02:10:00,54.2, 3.5
2023/03/16 02:20:00,54.2, 4.0
2023/03/16 02:30:00,54.3, 3.5
2023/03/16 02:40:00,53.8, 3.6
2023/03/16 02:50:00,53.6, 3.6
2023/03/16 03:00:00,53.3, 3.6
2023/03/16 03:10:00,53.6, 3.9
2023/03/16 03:20:00,53.5, 2.7
2023/03/16 03:30:00,53.1, 3.5
2023/03/16 03:40:00,53.1, 3.9
2023/03/16 03:50:00,53.0, 3.6
2023/03/16 04:00:00,52.9, 3.5
2023/03/16 04:10:00,52.9, 3.6
2023/03/16 04:20:00,52.9, 3.5
2023/03/16 04:30:00,52.8, 3.5
2023/03/16 04:40:00,52.7, 3.6
2023/03/16 04:50:00,52.7, 3.7
2023/03/16 05:00:00,52.8, 3.5
2023/03/16 05:10:00,52.8, 3.3
2023/03/16 05:20:00,52.7, 3.5
2023/03/16 05:30:00,52.7, 3.5
2023/03/16 05:40:00,52.6, 3.7
2023/03/16 05:50:00,52.4, 3.8
2023/03/16 06:00:00,52.6, 4.2
2023/03/16 06:10:00,52.6, 4.2
2023/03/16 06:20:00,52.6, 4.2
2023/03/16 06:30:00,52.7, 4.5
2023/03/16 06:40:00,52.7, 4.2
2023/03/16 06:50:00,52.9, 4.2
2023/03/16 07:00:00,52.7, 4.4
2023/03/16 07:10:00,52.4, 4.7
2023/03/16 07:20:00,52.3, 4.6
2023/03/16 07:30:00,52.3, 4.6
2023/03/16 07:40:00,52.5, 4.6
2023/03/16 07:50:00,52.7, 4.6
2023/03/16 08:00:00,52.7, 5.3
2023/03/16 08:10:00,52.4, 6.0
2023/03/16 08:20:00,51.9, 6.0
2023/03/16 08:30:00,51.7, 5.7
2023/03/16 08:40:00,51.6, 5.7
2023/03/16 08:50:00,51.0, 6.6
2023/03/16 09:00:00,51.1, 8.4
2023/03/16 09:10:00,51.1, 9.6
2023/03/16 09:20:00,50.8, 9.9
2023/03/16 09:30:00,50.8, 9.6
2023/03/16 09:40:00,50.6, 9.9
2023/03/16 09:50:00,50.8, 9.0
2023/03/16 10:00:00,50.7, 8.4
2023/03/16 10:10:00,50.5, 7.8
2023/03/16 10:20:00,50.7, 6.9
2023/03/16 10:30:00,50.7, 6.8
2023/03/16 10:40:00,50.4, 6.5
2023/03/16 10:50:00,50.4, 6.2
2023/03/16 11:00:00,50.4, 6.3
2023/03/16 11:10:00,50.4, 6.0
2023/03/16 11:20:00,50.4, 6.1
2023/03/16 11:30:00,50.0, 6.7
2023/03/16 11:40:00,49.7, 7.1
2023/03/16 11:50:00,49.8, 7.1
2023/03/16 12:00:00,50.2, 6.7
2023/03/16 12:10:00,50.3, 6.8
2023/03/16 12:20:00,50.2, 6.2
2023/03/16 12:30:00,50.3, 6.0
2023/03/16 12:40:00,50.4, 6.2
2023/03/16 12:50:00,50.8, 6.3
2023/03/16 13:00:00,51.0, 6.1
2023/03/16 13:10:00,49.9, 6.9
2023/03/16 13:20:00,49.4, 8.2
2023/03/16 13:30:00,49.3, 8.1
2023/03/16 13:40:00,49.3, 8.6
2023/03/16 13:50:00,49.2, 8.4
2023/03/16 14:00:00,49.2, 7.5
2023/03/16 14:10:00,49.4, 7.4
2023/03/16 14:20:00,49.5, 6.7
2023/03/16 14:30:00,49.3, 6.4
2023/03/16 14:40:00,49.2, 7.3
2023/03/16 14:50:00,49.3, 6.5
2023/03/16 15:00:00,49.5, 6.0
2023/03/16 15:10:00,49.5, 5.9
2023/03/16 15:20:00,49.5, 5.4
2023/03/16 15:30:00,49.6, 5.6
2023/03/16 15:40:00,49.6, 5.3
2023/03/16 15:50:00,49.8, 5.7
2023/03/16 16:00:00,49.8, 5.2
2023/03/16 16:10:00,49.6, 4.6
2023/03/16 16:20:00,49.4, 4.6
2023/03/16 16:30:00,49.3, 4.4
2023/03/16 16:40:00,49.3, 4.4
2023/03/16 16:50:00,49.2, 5.0
2023/03/16 17:00:00,49.1, 4.6
2023/03/16 17:10:00,49.1, 5.3
2023/03/16 17:20:00,49.2, 5.0
2023/03/16 17:30:00,49.2, 4.5
2023/03/16 17:40:00,49.2, 4.5
2023/03/16 17:50:00,49.3, 4.0
2023/03/16 18:00:00,49.4, 4.0
2023/03/16 18:10:00,49.3, 3.9
2023/03/16 18:20:00,49.4, 3.5
2023/03/16 18:30:00,49.2, 3.5
2023/03/16 18:40:00,49.3, 3.7
2023/03/16 18:50:00,49.3, 3.5
2023/03/16 19:00:00,49.4, 3.4
2023/03/16 19:10:00,49.5, 2.8
2023/03/16 19:20:00,49.3, 3.2
2023/03/16 19:30:00,49.0, 2.8
2023/03/16 19:40:00,49.1, 3.0
2023/03/16 19:50:00,49.1, 3.5
2023/03/16 20:00:00,49.0, 3.0
2023/03/16 20:10:00,49.0, 3.3
2023/03/16 20:20:00,49.1, 3.0
2023/03/16 20:30:00,49.4, 2.9
2023/03/16 20:40:00,49.1, 3.0
2023/03/16 20:50:00,49.1, 3.3
2023/03/16 21:00:00,49.1, 3.1
2023/03/16 21:10:00,48.9, 2.8
2023/03/16 21:20:00,48.9, 3.2
2023/03/16 21:30:00,49.2, 3.0
2023/03/16 21:40:00,49.4, 2.9
2023/03/16 21:50:00,49.2, 3.3
2023/03/16 22:00:00,49.1, 3.0
2023/03/16 22:10:00,48.9, 3.0
2023/03/16 22:20:00,48.8, 3.0
2023/03/16 22:30:00,49.1, 2.9
2023/03/16 22:40:00,48.9, 2.8
2023/03/16 22:50:00,48.8, 2.8
2023/03/16 23:00:00,49.0, 2.5
2023/03/16 23:10:00,48.8, 2.9
2023/03/16 23:20:00,48.8, 2.8
2023/03/16 23:30:00,48.8, 2.9
2023/03/16 23:40:00,48.8, 2.7
2023/03/16 23:50:00,48.8, 2.8
